SL-19 DEB, 23479

Orbit data source: Space-Track

SL-19 DEB, 23479 is space debris in LEO originally from a launch on Mon, 26 Dec 1994 UTC launched from the Tyuratam Missile And Space Complex (TTMTR). Debris objects in space refer to the collection of defunct objects orbiting the Earth. Examples of debris include non-operational satellites, rocket bodies, and fragments generated from explosions, collisions, or faulty payload assembly.

Loading next visibility...
Identifier
23479, 1994-085C
Orbit
LEO
Country
Flag of CISCIS
Related business
Manufacturer
Unknown
Mission
Spacecraft
Bus & Motor
Unknown
Mass
Unknown
Launch date (UTC)
1994-12-26 (31 years ago)
Launch vehicle
Unknown
Launch site
Tyuratam Missile And Space Complex (TTMTR)
Object type
Payload
Rocket body
Debris
Shape & HBR
Unknown shape, 0.3 m
Radar Cross Section
Medium (>0.1 m² and <1 m²)

Expand to show TLE details & history
Last TLE update: 2 days ago

TLE from 2 days ago
0 SL-19 DEB
1 23479U 94085C   26171.39385044 -.00001475  00000-0 -33677-1 0  9990
2 23479  65.0439 220.5154 0101528 339.3747 107.8675 11.45173528313587
Epoch: 2026-06-20T09:27Z
TLE epoch observation values (Epoch: 2026-06-20T09:27:08.678Z)
Latitude
65.09444°
Longitude
-103.80103°
Altitude
1,973.072 km
Speed
6.905 km/s
True Right ascension
20h 26m 22s
True Declination
64° 58' 55"
Sunlit
Object was in daylight at epoch
Visualization orbit readout
Latitude
Unknown
Longitude
Unknown
Altitude
Unknown
Speed
Unknown
Apparent Right ascension
Unknown
Apparent Declination
Unknown
Sunlit
N/A
Visualization observer readout
Local Sidereal Time
02:18:47
Azimuth
Unknown
Elevation
Unknown
Doppler factor
Unknown
Orbital elements
Apogee altitude
2,019.244 km
Perigee altitude
1,850.444 km
Semi-major axis
8,312.981 km
Eccentricity
0.01015
Inclination
65.0439°
RAAN
220.5154°
Arg. of periapsis
339.3747°
True anomaly
108.97045°
Mean anomaly
107.8675°
Eccentric anomaly
108.41941°
Mean motion
2.86357 °/min
Orbital period
125.72 mins
BSTAR
-0.033677
Loading maneuver chart data...
Computing Atmospheric mass density...
Loading historical data...
Loading historical data...
Loading historical data...
Loading historical data...
Loading historical data...
Loading historical data...
Loading historical data...

Documentation

Showing up to 5 results
|